Zanesville, OH

1:46 AM EDT on April 26, 2017 (GMT -0400)
Zanesville Municipal

Weather History for KZZV - March, 2013

Change the Weather History Date:

Tuesday, March 12, 2013

  Actual Average Record
Temperature  
Mean Temperature 39 °F 39 °F  
Max Temperature 43 °F 50 °F 78 °F (1990)
Min Temperature 34 °F 29 °F 7 °F (1948)
Degree Days  
Heating Degree Days 26 26  
Month to date heating degree days 342 330  
Since 1 July heating degree days 4473 4521  
Cooling Degree Days 0 0  
Month to date cooling degree days 0 0  
Year to date cooling degree days 0 0  
Moisture  
Dew Point 30 °F    
Average Humidity 80    
Maximum Humidity 96    
Minimum Humidity 64    
Precipitation  
Precipitation 0.01 in 0.09 in 1.30 in (2006)
Month to date precipitation 0.95 1.04  
Year to date precipitation 5.43 5.87  
Sea Level Pressure  
Sea Level Pressure 29.93 in    
Wind  
Wind Speed 9 mph (WSW)    
Max Wind Speed 14 mph    
Max Gust Speed 20 mph    
Visibility 9 miles    
Events Rain , Snow    
T = Trace of Precipitation, MM = Missing Value Source: NWS Daily Summary

Daily Weather History Graph

Daily Weather History Graph

Search for Another Location

Airport or City:

Trip Planner

Search our weather history database for the weather conditions in past years. The results will help you decide how hot, cold, wet, or windy it might be!

Date:

Astronomy

Mar. 12, 2013 Rise Set
Actual Time 7:43 AM EDT 7:31 PM EDT
Civil Twilight 7:16 AM EDT 7:58 PM EDT
Nautical Twilight 6:45 AM EDT 8:29 PM EDT
Astronomical Twilight 6:13 AM EDT 9:01 PM EDT
Moon 7:49 AM EDT (3/12) 8:45 PM EDT (3/12)
Length of Visible Light 12h 42m
Length of Day
11h 48m
New Moon, 1% of the Moon is Illuminated
Mar 12
New Moon
Mar 19
First Quarter
Mar 27
Full
Apr 3
Last Quarter
Apr 10
New

Hourly Weather History & Observations

Time (EDT) Temp. Windchill Dew Point Humidity Pressure Visibility Wind Dir Wind Speed Gust Speed Precip Events Conditions
12:00 AM 44.6 °F 40.2 °F 35.6 °F 71% 29.80 in 10.0 mi West 8.1 mph 26.5 mph 0.00 in Rain Light Rain
12:53 AM 43.0 °F 37.2 °F 35.1 °F 74% 29.80 in 10.0 mi WSW 10.4 mph - 0.00 in   Overcast
1:53 AM 42.1 °F 37.1 °F 35.1 °F 76% 29.81 in 10.0 mi WSW 8.1 mph - 0.00 in   Overcast
2:14 AM 41.0 °F 36.4 °F 33.8 °F 76% 29.82 in 10.0 mi WSW 6.9 mph 16.1 mph N/A   Overcast
2:53 AM 41.0 °F 35.2 °F 34.0 °F 76% 29.84 in 10.0 mi West 9.2 mph - N/A   Overcast
3:06 AM 39.2 °F 33.0 °F 33.8 °F 81% 29.84 in 10.0 mi West 9.2 mph - N/A   Overcast
3:53 AM 39.0 °F 33.4 °F 33.1 °F 79% 29.85 in 10.0 mi West 8.1 mph - N/A   Overcast
4:53 AM 37.9 °F 31.5 °F 32.0 °F 79% 29.86 in 10.0 mi West 9.2 mph - N/A   Overcast
5:04 AM 37.4 °F 29.8 °F 30.2 °F 75% 29.85 in 10.0 mi West 11.5 mph - N/A   Overcast
5:53 AM 37.0 °F 31.6 °F 32.0 °F 82% 29.88 in 10.0 mi West 6.9 mph - N/A   Overcast
6:53 AM 36.0 °F 28.0 °F 30.9 °F 82% 29.90 in 8.0 mi West 11.5 mph 19.6 mph 0.00 in   Overcast
7:03 AM 35.6 °F 28.6 °F 32.0 °F 87% 29.90 in 8.0 mi WSW 9.2 mph - 0.00 in   Overcast
7:53 AM 36.0 °F 30.3 °F 30.9 °F 82% 29.92 in 10.0 mi WSW 6.9 mph - 0.00 in   Overcast
8:44 AM 33.8 °F 25.8 °F 30.2 °F 87% 29.92 in 5.0 mi West 10.4 mph - 0.00 in Snow Light Snow
8:53 AM 34.0 °F 28.0 °F 32.0 °F 92% 29.94 in 9.0 mi West 6.9 mph - 0.00 in   Overcast
9:19 AM 35.6 °F 28.0 °F 32.0 °F 87% 29.93 in 10.0 mi WSW 10.4 mph - N/A   Overcast
9:36 AM 35.6 °F 29.9 °F 30.2 °F 81% 29.94 in 10.0 mi West 6.9 mph - N/A   Overcast
9:53 AM 36.0 °F 29.0 °F 30.0 °F 79% 29.95 in 10.0 mi West 9.2 mph - N/A   Overcast
10:08 AM 35.6 °F 28.6 °F 30.2 °F 81% 29.95 in 10.0 mi WSW 9.2 mph - N/A   Overcast
10:53 AM 35.1 °F 27.9 °F 28.9 °F 78% 29.96 in 10.0 mi WSW 9.2 mph - N/A   Overcast
11:17 AM 35.6 °F - 28.4 °F 75% 29.95 in 10.0 mi North - - N/A   Overcast
11:53 AM 35.1 °F 27.4 °F 30.0 °F 82% 29.97 in 10.0 mi WSW 10.4 mph - N/A   Overcast
12:19 PM 35.6 °F 28.0 °F 30.2 °F 81% 29.95 in 10.0 mi West 10.4 mph 17.3 mph N/A   Overcast
12:44 PM 37.4 °F 29.3 °F 30.2 °F 75% 29.95 in 10.0 mi WSW 12.7 mph 18.4 mph N/A   Overcast
12:53 PM 37.0 °F 29.8 °F 30.0 °F 76% 29.96 in 10.0 mi West 10.4 mph - N/A   Overcast
1:53 PM 37.9 °F 33.5 °F 30.0 °F 73% 29.97 in 10.0 mi West 5.8 mph - N/A   Overcast
2:53 PM 37.9 °F 29.6 °F 28.0 °F 68% 29.96 in 10.0 mi WSW 13.8 mph 19.6 mph N/A   Overcast
3:53 PM 37.0 °F 29.3 °F 28.0 °F 70% 29.96 in 10.0 mi West 11.5 mph - N/A   Overcast
4:35 PM 37.4 °F 29.8 °F 28.4 °F 70% 29.95 in 10.0 mi West 11.5 mph 19.6 mph N/A   Overcast
4:53 PM 37.9 °F 30.5 °F 28.0 °F 68% 29.97 in 10.0 mi West 11.5 mph 19.6 mph N/A   Overcast
5:26 PM 37.4 °F 29.3 °F 28.4 °F 70% 29.95 in 10.0 mi WSW 12.7 mph 24.2 mph N/A   Overcast
5:36 PM 37.4 °F 29.8 °F 28.4 °F 70% 29.96 in 10.0 mi WSW 11.5 mph - N/A   Overcast
5:53 PM 37.9 °F 30.5 °F 28.0 °F 68% 29.98 in 10.0 mi WSW 11.5 mph - N/A   Overcast
6:53 PM 37.0 °F 31.0 °F 27.0 °F 67% 30.00 in 10.0 mi WSW 8.1 mph 17.3 mph N/A   Overcast
7:53 PM 37.0 °F 32.4 °F 28.0 °F 70% 30.01 in 10.0 mi WSW 5.8 mph - N/A   Overcast
8:53 PM 37.0 °F 33.3 °F 28.0 °F 70% 30.02 in 10.0 mi SW 4.6 mph - N/A   Overcast
9:53 PM 35.1 °F 32.2 °F 28.0 °F 76% 30.01 in 10.0 mi South 3.5 mph - N/A   Overcast
10:53 PM 35.1 °F 30.1 °F 28.0 °F 76% 30.01 in 8.0 mi South 5.8 mph - 0.00 in Snow Light Snow
11:42 PM 33.8 °F 26.4 °F 30.2 °F 87% 30.00 in 4.0 mi West 9.2 mph - 0.00 in Snow Light Snow
11:46 PM 33.8 °F 26.4 °F 30.2 °F 87% 30.01 in 3.0 mi West 9.2 mph - 0.00 in Snow Light Snow
11:49 PM 33.8 °F 26.4 °F 30.2 °F 87% 30.00 in 2.0 mi West 9.2 mph - 0.01 in Snow Light Snow